www.pogodaiklimat.ru

Погода и климат >> Архив погоды >> Иран >> Bushehr


ПОГОДА в Bushehr

  • Прогноз погоды в Bushehr
  • Монитор погоды в Bushehr
  • Климат города

АРХИВ ПОГОДЫ в Bushehr

Время (UTC), дата Ветер
(напр.,м/с)
 
Видим.   Явления Облачность Т
(С)
Тd
(С)
f
(%)
Тe
(С)
Тes
(С)
Комфортность P
(гПа)
Po
(гПа)
Тmin
(С)
Tmax
(С)
R
(мм)
R24
(мм)
S
(см)
18 12.09 штиль 0 6000 м дымка ясно +32.6 +29.3 83 +57 +57 опасность
перегрева
1007.2 1006.3
21 12.09 штиль 0 6000 м дымка ясно +31.6 +29.0 86 +55 +55 опасность
перегрева
1006.1 1005.2
00 13.09 С 1 5000 м дымка ясно +30.9 +29.0 90 +54 +54 опасность
перегрева
1006.1 1005.2
03 13.09 СВ 2 1500 м дымка ясно +30.0 +28.1 90 +50 +50 опасность
перегрева
1006.6 1005.7 +30.0
06 13.09 Ю 2 5000 м мгла ясно +35.8 1007.1 1006.2
09 13.09 ЮЗ 4 5000 м мгла ясно +36.4 +30.2 71 +64 +76 опасность
перегрева
1005.2 1004.3
12 13.09 ЮЗ 5 5000 м мгла ясно +38.5 1003.3 1002.4
15 13.09 ЮЗ 4 7000 м мгла ясно +34.9 +29.7 75 +61 +61 опасность
перегрева
1003.6 1002.7 +39.1
18 13.09 ЮВ 1 7000 м мгла ясно +33.8 +28.9 76 +57 +57 опасность
перегрева
1004.6 1003.7
21 13.09 Ю 4 7000 м мгла ясно +33.6 +28.1 73 +55 +55 опасность
перегрева
1003.6 1002.7
00 14.09 Ю 4 7000 м мгла ясно +33.4 +28.2 74 +54 +54 опасность
перегрева
1003.4 1002.5
03 14.09 В 3 5000 м мгла ясно +31.4 +26.4 75 +48 +48 опасность
перегрева
1004.4 1003.5 +31.3
06 14.09 Ю 6 5000 м мгла 1/1 600 м
[St]
+34.8 +29.5 74 +60 +64 опасность
перегрева
1005.6 1004.7
09 14.09 ЮЗ 7 5000 м мгла ясно +36.4 +29.9 69 +62 +67 опасность
перегрева
1004.6 1003.7
12 14.09 Ю 7 6000 м мгла ясно +36.9 +29.5 66 1003.3 1002.4
15 14.09 Ю 4 7000 м мгла ясно +34.6 +29.0 73 +58 +58 опасность
перегрева
1003.4 1002.5 +37.7
18 14.09 Ю 3 6000 м мгла ясно +33.8 +29.3 77 +58 +58 опасность
перегрева
1004.7 1003.8
21 14.09 ЮВ 3 5000 м мгла ясно +33.7 +28.5 74 +56 +56 опасность
перегрева
1004.0 1003.1
00 15.09 Ю 2 5000 м мгла ясно +33.1 +28.5 77 +55 +55 опасность
перегрева
1004.4 1003.5
03 15.09 СВ 2 5000 м мгла 1/1 600 м
[St]
+31.1 +26.9 78 +48 +49 опасность
перегрева
1005.7 1004.8 +30.9
06 15.09 ЮЗ 2 6000 м мгла 3/0
[Ac trans]
+35.7 +28.5 67 +58 +67 опасность
перегрева
1006.6 1005.7
09 15.09 ЮЗ 4 8000 м мгла ясно +37.7 +29.1 62 +61 +73 опасность
перегрева
1005.2 1004.3
12 15.09 ЮЗ 5 10 км ясно +36.5 +28.3 63 1003.7 1002.8
15 15.09 СЗ 1 7000 м мгла 4/0
[Ac As]
+33.7 +27.5 70 +53 +53 опасность
перегрева
1005.3 1004.4 +38.7
18 15.09 СЗ 3 7000 м мгла ясно +33.9 +28.3 73 +56 +56 опасность
перегрева
1005.4 1004.5
21 15.09 СЗ 2 7000 м мгла ясно +32.7 +28.2 77 +54 +54 опасность
перегрева
1004.8 1003.9
00 16.09 В 1 6000 м дымка ясно +30.6 +27.3 83 +49 +49 опасность
перегрева
1004.0 1003.1
03 16.09 СВ 1 6000 м дымка ясно +29.6 +26.3 82 +45 +45 опасность
перегрева
1005.0 1004.1 +29.6
06 16.09 З 2 7000 м мгла ясно +35.0 1006.5 1005.6
09 16.09 З 4 7000 м мгла ясно +35.7 +28.5 67 +58 +70 опасность
перегрева
1005.7 1004.8
12 16.09 З 4 7000 м мгла ясно +35.6 1004.6 1003.7
15 16.09 З 2 7000 м мгла ясно +34.5 +28.0 69 +55 +55 опасность
перегрева
1005.0 1004.1 +35.9
18 16.09 СВ 1 7000 м мгла ясно +32.1 +26.9 74 +50 +50 опасность
перегрева
1005.7 1004.8
21 16.09 СЗ 1 7000 м мгла ясно +30.0 +26.8 83 +47 +47 опасность
перегрева
1005.0 1004.1
00 17.09 СЗ 1 7000 м мгла ясно +30.0 +26.8 83 +47 +47 опасность
перегрева
1005.0 1004.1
03 17.09 СВ 2 7000 м мгла 3/0
[Ac trans]
+28.7 +26.1 86 +43 +44 опасность
перегрева
1005.6 1004.7 +28.7
06 17.09 С 2 6000 м мгла 1/0
[Ac trans]
+35.6 +28.1 65 +56 +66 опасность
перегрева
1006.5 1005.6
09 17.09 ЮЗ 3 6000 м мгла ясно +36.8 +29.7 67 +62 +76 опасность
перегрева
1006.0 1005.1
12 17.09 З 3 6000 м мгла ясно +36.1 +29.7 70 1004.6 1003.7
15 17.09 З 3 6000 м мгла ясно +34.5 +28.3 70 +56 +56 опасность
перегрева
1004.9 1004.0 +37.7
18 17.09 Ю 2 7000 м мгла ясно +34.2 +25.5 61 +49 +49 опасность
перегрева
1006.4 1005.5
21 17.09 Ю 4 6000 м мгла 5/0
[Ac trans]
+33.9 +28.6 74 +56 +56 опасность
перегрева
1005.4 1004.5
00 18.09 СВ 2 6000 м дымка 4/0
[Ac trans]
+31.5 +27.6 80 +51 +51 опасность
перегрева
1005.1 1004.2
03 18.09 штиль 0 4000 м дымка 3/0
[Ac trans]
+30.5 +27.2 83 +49 +49 опасность
перегрева
1006.1 1005.2 +30.5
06 18.09 штиль 0 5000 м мгла ясно +35.2 1007.6 1006.7
09 18.09 СЗ 3 5000 м мгла ясно +35.8 +27.4 62 +55 +69 опасность
перегрева
1006.6 1005.7
12 18.09 СЗ 5 6000 м мгла ясно +35.6 1005.0 1004.1
15 18.09 З 3 6000 м мгла ясно +35.0 +27.2 64 +53 +53 опасность
перегрева
1005.5 1004.6 +36.2
18 18.09 В 1 6000 м мгла ясно +32.9 +25.4 65 +47 +47 опасность
перегрева
1007.1 1006.2
21 18.09 С 1 6000 м мгла ясно +31.1 +22.4 60 +40 +40 очень
душно
1006.0 1005.1
00 19.09 С 2 6000 м мгла ясно +32.1 +25.7 69 +47 +47 опасность
перегрева
1005.1 1004.2
03 19.09 штиль 0 6000 м мгла ясно +28.7 +18.5 54 +34 +34 очень
душно
1006.4 1005.5 +28.5
06 19.09 СЗ 2 10 км ясно +36.3 1007.4 1006.5
09 19.09 СЗ 3 10 км ясно +36.8 +28.4 62 +58 +72 опасность
перегрева
1006.0 1005.1
12 19.09 З 5 10 км ясно +35.9 1004.1 1003.2

 

Местоположение метеостанции Bushehr (Иран): широта 28.95 долгота 50.85 высота над уровнем моря 8 м.

В архиве по умолчанию представлена погода в Bushehr за последнюю неделю. Архивные данные за месяц целиком и за предыдущие месяцы, начиная с января 2011 года, Вы можете получить, выбрав интересующий диапазон дат из раскрывающегося списка и нажав кнопку "Ввод!".

Внимание! Время в таблицах - всемирное. Для получения местного времени необходимо прибавить поправку, которая в Bushehr равна 3.5 ч.

Смотрите также архив погоды в соседних городах и на ближайших метеорологических станциях:

Погода в Bushehr Airport (Иран) (4 км)
Погода в Khark (Иран) (62 км)
Погода в Bandar Deyr (Иран) (163 км)
Погода в Gach Saran (Иран) (165 км)
Погода в Shiraz (Иран) (175 км)
Погода в Yasuj (Иран) (204 км)
Погода в Nuwasib (Кувейт) (211 км)
Погода в Umm-Al-Maradim (Кувейт) (216 км)
Погода в Omidieh (Иран) (232 км)
Погода в Juluiah Port (Кувейт) (250 км)

Пояснения к столбцам:

Ветер - указаны скорость ветра в м/с - средняя за 10 мин, порывы в срок и между сроками (в фигурных скобках) и направление, откуда дует ветер: С - северный, СВ - северо-восточный, В - восточный, ЮВ - юго-восточный, Ю - южный, ЮЗ - юго-западный, З - западный, СЗ - северо-западный.
Видимость - горизонтальная дальность видимости в метрах или километрах. При видимости от 1 до 10 км при отсутствии осадков обычно наблюдается дымка, при ухудшении видимости до 1 км и менее - туман. В сухую погоду видимость может ухудшаться дымом, пылью или мглою.
Явления - указаны атмосферные явления, наблюдавшиеся в срок или в последний час перед сроком; фигурными скобками обозначены явления, наблюдавшиеся между сроками (за 1-3 часа до срока); квадратными скобками обозначены град или гололедные отложения с указанием их диаметра в мм.
Облачность - указаны через наклонную черту общая и нижняя облачность в баллах и высота нижней границы облаков в метрах; квадратными скобками обозначены формы облаков: Ci - перистые, Cs - перисто-слоистые, Cc - перисто-кучевые, Ac - высококучевые, As - высокослоистые, Sc - слоисто-кучевые, Ns - слоисто-дождевые, Cu - кучевые, Cb - кучево-дождевые. Подробнее классификацию облаков см. в Атласе облаков (PDF).
T - Температура воздуха - температура, измеренная на высоте 2 м над землей.
Td - Температура точки росы - температура, при понижении до которой содержащийся в воздухе водяной пар достигнет насыщения.
f - Относительная влажность воздуха - влажноcть воздуха, измеренная на высоте 2 м над землей.
Te - Эффективная температура - температура, которую ощущает одетый по сезону человек в тени. Характеристика душности погоды. При расчете учитывается влияние влажности воздуха и скорости ветра на теплоощущения человека.
Tes - Эффективная температура на солнце - температура, которую ощущает человек, с поправкой на солнечный нагрев. Характеристика знойности погоды. Зависит от высоты солнца над горизонтом, облачности и скорости ветра. Ночью, в пасмурную погоду, а также при ветре 12 м/с и более поправка равна нулю.
P - Атмосферное давление - приведенное к уровню моря атмосферное давление.
Po - Атмосферное давление - измеренное на уровне метеостанции атмосферное давление.
Tmin - Минимальная температура - минимум температуры воздуха на высоте 2 м над землей.
Tmax - Максимальная температура - максимум температуры воздуха на высоте 2 м над землей.
R - Количество осадков - Количество выпавших осадков за период времени, мм. При наведении курсора мыши на число - период времени, за который выпало указанное количество осадков.
R24 - Количество осадков - Количество выпавших осадков за 24 часа, мм.
S - Снежный покров - Высота снежного покрова, см. При наведении курсора мыши на число - состояние снежного покрова и степень покрытия местности в баллах.